This is the latest recevied weather packets stored in our database for station/object DC1MAK-13. If no packets are shown the sender has not sent any weather packets the latest 10 day(s).
| Time | Temp. | Humidity | Pressure | Rain* | Wind** | Luminosity | Snow |
|---|---|---|---|---|---|---|---|
| 1787592159 | 20.56° C | 52% | 985.3 hPa | - | - | - | - |
| 1787592153 | 20.56° C | 52% | 985.3 hPa | - | - | - | - |
| 1787591855 | 20.56° C | 51% | 985.2 hPa | - | - | - | - |
| 1787591552 | 20.56° C | 53% | 985.2 hPa | - | - | - | - |
| 1787591546 | 20.56° C | 53% | 985.2 hPa | - | - | - | - |
| 1787590947 | 20.56° C | 55% | 985.3 hPa | - | - | - | - |
| 1787590647 | 20° C | 54% | 985.4 hPa | - | - | - | - |
| 1787590636 | 20° C | 54% | 985.4 hPa | - | - | - | - |
| 1787590338 | 20° C | 54% | 985.4 hPa | - | - | - | - |
| 1787590332 | 20° C | 54% | 985.4 hPa | - | - | - | - |
| 1787590035 | 20° C | 55% | 985.3 hPa | - | - | - | - |
| 1787590029 | 20° C | 55% | 985.3 hPa | - | - | - | - |
| 1787589731 | 20° C | 58% | 985.5 hPa | - | - | - | - |
| 1787589725 | 20° C | 58% | 985.5 hPa | - | - | - | - |
| 1787589127 | 20° C | 60% | 985.8 hPa | - | - | - | - |
| 1787589118 | 20° C | 60% | 985.8 hPa | - | - | - | - |
| 1787588821 | 20° C | 58% | 986 hPa | - | - | - | - |
| 1787588517 | 20° C | 57% | 986.1 hPa | - | - | - | - |
| 1787588511 | 20° C | 57% | 986.1 hPa | - | - | - | - |
| 1787588214 | 20.56° C | 57% | 986.1 hPa | - | - | - | - |
| 1787588208 | 20.56° C | 57% | 986.1 hPa | - | - | - | - |
| 1787587910 | 20.56° C | 55% | 986.3 hPa | - | - | - | - |
| 1787587601 | 21.11° C | 51% | 986.4 hPa | - | - | - | - |
| 1787587307 | 21.11° C | 51% | 986.7 hPa | - | - | - | - |
| 1787587298 | 21.11° C | 51% | 986.7 hPa | - | - | - | - |
* Rain since midnight (hover to see other rain measurements)
** Current wind speed in m/s (hover to see current wind gust speed)